Regional Weather Roundup
Issued by NWS

Home | Current Version | Previous Version | Graphics & Text | Print | Product List | Glossary On
Versions: 1 2 3 4 5 6 7 8 9 10 11 12 13 14 15 16 17 18 19 20 21 22 23 24 25 26 27 28 29 30 31 32 33 34 35 36 37 38 39 40 41 42 43 44 45 46 47 48 49 50
000
ASUS43 KOAX 201610
RWRNE

WEATHER ROUNDUP FOR NEBRASKA
NATIONAL WEATHER SERVICE OMAHA NE
1000 AM CST SAT JAN 20 2018

NOTES: SATELLITE DATA IS BEING USED TO AUGMENT CLOUD COVER ABOVE
       12000 FEET.
       "FAIR" INDICATES FEW OR NO CLOUDS BELOW 12,000 FEET WITH NO
       SIGNIFICANT WEATHER AND/OR OBSTRUCTIONS TO VISIBILITY.


NEZ001>004-019>022-054>056-201700-
NEBRASKA PANHANDLE

CITY           SKY/WX    TMP DP  RH WIND       PRES   REMARKS
SCOTTSBLUFF    CLOUDY    29  26  89 CALM      29.88R
ALLIANCE       CLOUDY    29  28  96 N9        29.85R WCI  20
CHADRON        CLOUDY    28  28 100 CALM      29.90R
GORDON         FAIR      32  30  92 N12       29.86R WCI  23
KIMBALL        CLOUDY    33  29  83 N12       29.83R WCI  25
SIDNEY         CLOUDY    32  29  88 N8        29.82R WCI  25
$$

NEZ057>060-069>072-079>082-201700-
SOUTHWEST NEBRASKA

CITY           SKY/WX    TMP DP  RH WIND       PRES   REMARKS
NORTH PLATTE   CLOUDY    38  31  76 NE14      29.84R WCI  30
IMPERIAL       MOSUNNY   36  31  82 NE12      29.81S WCI  28
LEXINGTON      PTSUNNY   37  32  80 NE10      29.83R WCI  30
MCCOOK         SUNNY     37  32  82 NE14      29.80R WCI  28
OGALLALA       CLOUDY    37  32  82 E9        29.84R WCI  31
$$

NEZ005>010-023>029-035>040-094-201700-
NORTH CENTRAL NEBRASKA

CITY           SKY/WX    TMP DP  RH WIND       PRES   REMARKS
VALENTINE      PTSUNNY   32  29  88 NW5       29.90R WCI  27
AINSWORTH      CLOUDY    32  32  99 N7        29.88R WCI  26
BROKEN BOW     CLOUDY    36  30  79 N9        29.85R WCI  29
O`NEILL        CLOUDY    33  32  97 N6        29.88R WCI  27
ORD            CLOUDY    37  32  82 N6        29.85R WCI  32
THEDFORD       CLOUDY    33  31  94 CALM      29.86S
$$

NEZ041-046>049-061>064-073>077-083>087-201700-
SOUTH CENTRAL NEBRASKA

CITY           SKY/WX    TMP DP  RH WIND       PRES   REMARKS
GRAND ISLAND   CLOUDY    34  31  88 NE13      29.83R WCI  25
AURORA         SUNNY     35  32  87 E9        29.82S WCI  28
HASTINGS       SUNNY     34  30  85 NE8       29.82R WCI  27
HEBRON         FOG       30  29  97 CALM      29.83R VSB<1/4
HOLDREGE       CLOUDY    35  32  91 NE15      29.80R WCI  25
KEARNEY        CLOUDY    36  31  82 NE12      29.83R WCI  28
YORK           SUNNY     36  36 100 E9        29.83R WCI  29
$$

NEZ011>018-030>034-042>045-201700-
NORTHEAST NEBRASKA

CITY           SKY/WX    TMP DP  RH WIND       PRES   REMARKS
NORFOLK        MOSUNNY   36  31  82 CALM      29.85R
ALBION         MOSUNNY   40  33  76 NE8       29.86S WCI  34
BLAIR          CLOUDY    35  31  84 NE5       29.85R WCI  31
COLUMBUS       CLOUDY    40  34  79 NE8       29.86S WCI  34
FREMONT        SUNNY     34  31  88 CALM      29.87R
TEKAMAH        SUNNY     35  30  82 N8        29.87S WCI  29
WAYNE          MOSUNNY   37  33  88 CALM      29.88R
$$

NEZ050>053-065>068-078-088>093-201700-
SOUTHEAST NEBRASKA

CITY           SKY/WX    TMP DP  RH WIND       PRES   REMARKS
LINCOLN        CLOUDY    33  29  85 CALM      29.87R
OMAHA EPPLEY   CLOUDY    34  28  79 CALM      29.87R
BEATRICE       CLOUDY    37  37  99 CALM      29.84S FOG
FALLS CITY     CLOUDY    41  38  89 CALM      29.87R
NEBRASKA CITY  CLOUDY    35  34  95 CALM      29.87R
PLATTSMOUTH    CLOUDY    34  29  83 CALM      29.87R
$$

NEZ044-045-051>053-067-201700-
OMAHA AREA

CITY           SKY/WX    TMP DP  RH WIND       PRES   REMARKS
OMAHA EPPLEY   CLOUDY    34  28  79 CALM      29.87R
BLAIR          CLOUDY    35  31  84 NE5       29.85R WCI  31
FREMONT        SUNNY     34  31  88 CALM      29.87R
MILLARD        CLOUDY    36  30  80 SE3       29.87R
OFFUTT AFB     CLOUDY    32  28  85 SE3       29.87R
PLATTSMOUTH    CLOUDY    34  29  83 CALM      29.87R
WAHOO          FAIR      35  31  86 N7        29.86R WCI  29
$$




USA.gov is the U.S. government's official web portal to all federal, state and local government web resources and services.